SV7RNH Weather Reports


Display with metric or nautical units.
time (UTC)temp
F
wind
direction
speed
MPH
gust
MPH
rain 1hr
in
rain 24hr
in
rain mn
in
humidity
%
barometer
mb
20260510182003 70 0 0.0 2.0 0.00 0.00 0.00 53 1014.9
20260510181503 70 0 0.0 2.0 0.00 0.00 0.00 52 1014.8
20260510181004 70 0 0.0 2.0 0.00 0.00 0.00 52 1014.8
20260510180503 70 0 0.0 2.0 0.00 0.00 0.00 52 1014.9
20260510180003 71 0 0.0 2.0 0.00 0.00 0.00 51 1014.7
20260510175504 71 0 0.0 2.0 0.00 0.00 0.00 51 1014.7
20260510175004 71 0 0.0 2.0 0.00 0.00 0.00 52 1014.8
20260510174503 71 135 1.0 2.0 0.00 0.00 0.00 51 1014.8
20260510174003 71 135 2.0 2.0 0.00 0.00 0.00 51 1014.7
20260510173504 71 0 0.0 2.0 0.00 0.00 0.00 50 1014.7
20260510173004 72 0 0.0 3.0 0.00 0.00 0.00 49 1014.7
20260510172503 72 0 0.0 3.0 0.00 0.00 0.00 49 1014.7
20260510172003 72 0 0.0 4.0 0.00 0.00 0.00 49 1014.7
20260510171503 72 0 0.0 5.0 0.00 0.00 0.00 49 1014.7
20260510171004 72 219 1.0 5.0 0.00 0.00 0.00 48 1014.9
20260510170503 72 242 2.0 4.0 0.00 0.00 0.00 48 1014.8
20260510170003 73 242 2.0 6.0 0.00 0.00 0.00 48 1014.6
20260510165503 73 150 2.0 7.0 0.00 0.00 0.00 48 1014.7
20260510165004 73 113 2.0 7.0 0.00 0.00 0.00 47 1014.6
20260510164503 73 96 2.0 5.0 0.00 0.00 0.00 48 1014.6
20260510164003 74 103 2.0 4.0 0.00 0.00 0.00 47 1014.5
20260510163503 74 139 2.0 4.0 0.00 0.00 0.00 47 1014.5
20260510163004 73 148 1.0 4.0 0.00 0.00 0.00 47 1014.5
20260510162503 74 131 2.0 6.0 0.00 0.00 0.00 47 1014.6
20260510162003 74 126 1.0 6.0 0.00 0.00 0.00 47 1014.7
20260510161503 74 118 3.0 5.0 0.00 0.00 0.00 47 1014.6
20260510161004 74 188 2.0 5.0 0.00 0.00 0.00 47 1014.6
20260510160503 74 275 1.0 5.0 0.00 0.00 0.00 48 1014.7
20260510160003 75 228 2.0 5.0 0.00 0.00 0.00 48 1014.7
20260510155503 75 207 3.0 7.0 0.00 0.00 0.00 47 1014.7
20260510155004 75 247 2.0 7.0 0.00 0.00 0.00 48 1014.7
20260510154503 76 0 0.0 6.0 0.00 0.00 0.00 48 1014.6
20260510154003 76 254 2.0 8.0 0.00 0.00 0.00 47 1014.6
20260510153503 76 302 2.0 8.0 0.00 0.00 0.00 48 1014.6
20260510153004 77 266 2.0 8.0 0.00 0.00 0.00 49 1014.5
20260510152504 77 240 4.0 8.0 0.00 0.00 0.00 49 1014.6
20260510152003 76 228 1.0 4.0 0.00 0.00 0.00 49 1014.7
20260510151503 76 201 1.0 5.0 0.00 0.00 0.00 49 1014.7
20260510151004 76 199 2.0 5.0 0.00 0.00 0.00 49 1014.6
20260510150503 76 211 2.0 4.0 0.00 0.00 0.00 49 1014.7
20260510150003 76 144 2.0 7.0 0.00 0.00 0.00 49 1014.6
20260510145503 75 141 1.0 7.0 0.00 0.00 0.00 49 1014.5
20260510145004 76 147 2.0 5.0 0.00 0.00 0.00 49 1014.8
20260510144504 75 249 2.0 8.0 0.00 0.00 0.00 48 1014.7
20260510144003 75 221 2.0 8.0 0.00 0.00 0.00 49 1014.8
20260510143503 76 141 2.0 8.0 0.00 0.00 0.00 48 1014.9
20260510143003 76 133 2.0 8.0 0.00 0.00 0.00 49 1014.8
20260510142504 76 129 4.0 8.0 0.00 0.00 0.00 49 1014.7
20260510142003 76 136 4.0 8.0 0.00 0.00 0.00 50 1014.7
20260510141503 77 128 2.0 8.0 0.00 0.00 0.00 49 1014.6
20260510141003 77 120 2.0 8.0 0.00 0.00 0.00 48 1014.6
20260510140504 78 57 1.0 5.0 0.00 0.00 0.00 45 1014.6
20260510140004 81 0 0.0 6.0 0.00 0.00 0.00 38 1014.7
20260510135503 81 0 0.0 6.0 0.00 0.00 0.00 38 1014.7
20260510135003 80 122 2.0 6.0 0.00 0.00 0.00 39 1014.7
20260510134504 81 237 2.0 9.0 0.00 0.00 0.00 39 1014.8
20260510134003 81 232 2.0 9.0 0.00 0.00 0.00 37 1014.8
20260510133504 83 246 4.0 8.0 0.00 0.00 0.00 35 1014.8
20260510133004 82 327 2.0 4.0 0.00 0.00 0.00 35 1014.8
20260510132503 82 343 1.0 4.0 0.00 0.00 0.00 34 1014.7
20260510132003 81 290 1.0 4.0 0.00 0.00 0.00 35 1014.9
20260510131504 81 255 2.0 4.0 0.00 0.00 0.00 37 1014.8
20260510131004 81 228 2.0 4.0 0.00 0.00 0.00 36 1014.9
20260510130503 81 154 1.0 4.0 0.00 0.00 0.00 35 1015.1
20260510130003 81 261 2.0 4.0 0.00 0.00 0.00 35 1015.1
20260510125504 80 0 0.0 6.0 0.00 0.00 0.00 36 1015.1
20260510125004 80 135 2.0 7.0 0.00 0.00 0.00 35 1015.2
20260510124503 80 179 3.0 7.0 0.00 0.00 0.00 34 1015.2
20260510124003 81 210 1.0 4.0 0.00 0.00 0.00 33 1015.2
20260510123503 84 155 2.0 6.0 0.00 0.00 0.00 29 1015.7
20260510123004 83 134 2.0 6.0 0.00 0.00 0.00 30 1015.7
20260510122503 83 135 3.0 6.0 0.00 0.00 0.00 29 1015.6
20260510122003 84 159 2.0 6.0 0.00 0.00 0.00 28 1015.8
20260510121503 85 209 1.0 5.0 0.00 0.00 0.00 28 1015.7
20260510121004 86 192 2.0 5.0 0.00 0.00 0.00 26 1015.8
20260510120503 86 0 0.0 7.0 0.00 0.00 0.00 27 1015.9
20260510120003 86 190 3.0 8.0 0.00 0.00 0.00 25 1015.9
20260510115504 86 215 2.0 8.0 0.00 0.00 0.00 26 1016.0
20260510115004 86 0 0.0 6.0 0.00 0.00 0.00 26 1016.2
20260510114504 87 265 2.0 6.0 0.00 0.00 0.00 26 1016.2
20260510114003 87 258 2.0 7.0 0.00 0.00 0.00 25 1016.2
20260510113503 87 197 2.0 7.0 0.00 0.00 0.00 26 1016.2
20260510113003 87 164 2.0 6.0 0.00 0.00 0.00 26 1016.3
20260510112504 87 207 2.0 6.0 0.00 0.00 0.00 24 1016.2
20260510112003 85 226 2.0 6.0 0.00 0.00 0.00 28 1016.5
20260510111503 85 239 2.0 6.0 0.00 0.00 0.00 28 1016.5
20260510111003 86 238 2.0 6.0 0.00 0.00 0.00 28 1016.3
20260510110504 86 218 2.0 8.0 0.00 0.00 0.00 29 1016.4
20260510110004 85 220 2.0 8.0 0.00 0.00 0.00 26 1016.5
20260510105503 85 241 2.0 8.0 0.00 0.00 0.00 26 1016.5
20260510105004 85 237 4.0 8.0 0.00 0.00 0.00 26 1016.6
20260510104504 85 225 2.0 6.0 0.00 0.00 0.00 25 1016.6
20260510104003 85 230 1.0 7.0 0.00 0.00 0.00 28 1016.6
20260510103503 84 231 1.0 7.0 0.00 0.00 0.00 28 1016.7
20260510103003 83 235 2.0 7.0 0.00 0.00 0.00 29 1016.9
20260510102504 84 278 1.0 5.0 0.00 0.00 0.00 29 1016.8
20260510102003 83 249 2.0 5.0 0.00 0.00 0.00 28 1016.9
20260510101503 84 230 1.0 4.0 0.00 0.00 0.00 29 1016.9
20260510101003 84 0 0.0 4.0 0.00 0.00 0.00 29 1016.9
20260510100504 83 0 0.0 4.0 0.00 0.00 0.00 30 1016.9
20260510100004 84 229 2.0 8.0 0.00 0.00 0.00 28 1017.0
20260510095503 83 234 2.0 8.0 0.00 0.00 0.00 30 1016.9
20260510095003 83 251 1.0 4.0 0.00 0.00 0.00 30 1016.8
20260510094504 83 297 2.0 4.0 0.00 0.00 0.00 29 1017.0
20260510094004 84 0 0.0 2.0 0.00 0.00 0.00 30 1017.1
20260510093503 83 0 0.0 2.0 0.00 0.00 0.00 32 1017.2
20260510093004 82 331 1.0 5.0 0.00 0.00 0.00 31 1017.1
20260510092504 82 277 1.0 6.0 0.00 0.00 0.00 31 1017.2
20260510092003 82 0 0.0 6.0 0.00 0.00 0.00 31 1017.2
20260510091503 82 42 2.0 4.0 0.00 0.00 0.00 31 1017.3
20260510091003 81 63 2.0 5.0 0.00 0.00 0.00 32 1017.2
20260510090504 81 53 2.0 8.0 0.00 0.00 0.00 32 1017.2
20260510090003 81 50 2.0 8.0 0.00 0.00 0.00 32 1017.2
20260510085503 81 55 2.0 8.0 0.00 0.00 0.00 32 1017.2
20260510085003 81 72 2.0 7.0 0.00 0.00 0.00 31 1017.3
20260510084504 81 181 2.0 7.0 0.00 0.00 0.00 33 1017.2
20260510084003 80 174 4.0 7.0 0.00 0.00 0.00 35 1017.2
20260510083503 80 133 4.0 7.0 0.00 0.00 0.00 35 1017.2
20260510083003 80 38 1.0 8.0 0.00 0.00 0.00 35 1017.3
20260510082504 80 67 1.0 10.0 0.00 0.00 0.00 35 1017.2
20260510082003 80 91 2.0 10.0 0.00 0.00 0.00 35 1017.1
20260510081503 79 46 2.0 4.0 0.00 0.00 0.00 37 1017.1
20260510081003 79 43 1.0 5.0 0.00 0.00 0.00 37 1017.2
20260510080504 79 27 2.0 7.0 0.00 0.00 0.00 38 1017.2
20260510080004 79 295 2.0 7.0 0.00 0.00 0.00 38 1017.2
20260510075503 79 230 1.0 5.0 0.00 0.00 0.00 42 1017.3
20260510075003 78 232 2.0 8.0 0.00 0.00 0.00 43 1017.3
20260510074504 78 266 3.0 8.0 0.00 0.00 0.00 43 1017.4
20260510074003 77 291 2.0 7.0 0.00 0.00 0.00 45 1017.5
20260510073503 76 254 3.0 7.0 0.00 0.00 0.00 46 1017.5
20260510073003 76 229 2.0 6.0 0.00 0.00 0.00 46 1017.5
20260510072504 75 232 2.0 6.0 0.00 0.00 0.00 47 1017.5
20260510072003 74 228 2.0 6.0 0.00 0.00 0.00 49 1017.4
20260510071503 74 232 4.0 7.0 0.00 0.00 0.00 49 1017.5
20260510071003 73 232 2.0 7.0 0.00 0.00 0.00 51 1017.6
20260510070504 73 225 3.0 7.0 0.00 0.00 0.00 52 1017.5
20260510070004 73 225 4.0 6.0 0.00 0.00 0.00 53 1017.4
20260510065503 72 225 2.0 6.0 0.00 0.00 0.00 54 1017.5
20260510065003 72 225 3.0 6.0 0.00 0.00 0.00 55 1017.3
20260510064504 72 225 3.0 8.0 0.00 0.00 0.00 56 1017.4
20260510064004 72 229 3.0 8.0 0.00 0.00 0.00 56 1017.4
20260510063503 72 229 4.0 6.0 0.00 0.00 0.00 56 1017.3
20260510063003 72 230 2.0 6.0 0.00 0.00 0.00 57 1017.5
20260510062503 71 230 2.0 6.0 0.00 0.00 0.00 56 1017.5
20260510062004 71 225 3.0 5.0 0.00 0.00 0.00 55 1017.6
20260510061504 71 225 2.0 4.0 0.00 0.00 0.00 55 1017.4
20260510061003 71 225 2.0 4.0 0.00 0.00 0.00 56 1017.5
20260510060503 70 225 2.0 4.0 0.00 0.00 0.00 56 1017.5
20260510060004 71 225 1.0 4.0 0.00 0.00 0.00 55 1017.5
20260510055503 71 225 1.0 6.0 0.00 0.00 0.00 55 1017.5
20260510055003 70 0 0.0 6.0 0.00 0.00 0.00 56 1017.6
20260510054503 70 225 2.0 5.0 0.00 0.00 0.00 55 1017.6
20260510054004 71 225 2.0 4.0 0.00 0.00 0.00 55 1017.5
20260510053503 71 0 0.0 2.0 0.00 0.00 0.00 55 1017.5
20260510053003 71 0 0.0 2.0 0.00 0.00 0.00 56 1017.5
20260510052503 71 0 0.0 2.0 0.00 0.00 0.00 56 1017.4
20260510052004 71 0 0.0 2.0 0.00 0.00 0.00 56 1017.3
20260510051504 71 0 0.0 2.0 0.00 0.00 0.00 56 1017.2
20260510051003 71 0 0.0 2.0 0.00 0.00 0.00 57 1017.3
20260510050503 71 0 0.0 2.0 0.00 0.00 0.00 57 1017.3
20260510050004 71 0 0.0 2.0 0.00 0.00 0.00 58 1017.2
20260510045504 71 225 1.0 2.0 0.00 0.00 0.00 59 1017.2
20260510045003 71 0 0.0 2.0 0.00 0.00 0.00 60 1017.2
20260510044503 70 0 0.0 2.0 0.00 0.00 0.00 62 1017.3
20260510044003 70 0 0.0 2.0 0.00 0.00 0.00 65 1017.3
20260510043503 68 0 0.0 2.0 0.00 0.00 0.00 67 1017.3
20260510043004 66 0 0.0 2.0 0.00 0.00 0.00 67 1017.3
20260510042503 65 0 0.0 2.0 0.00 0.00 0.00 66 1017.4
20260510042003 65 225 1.0 2.0 0.00 0.00 0.00 67 1017.3
20260510041503 64 0 0.0 2.0 0.00 0.00 0.00 67 1017.3
20260510041004 64 0 0.0 3.0 0.00 0.00 0.00 67 1017.4
20260510040503 64 0 0.0 3.0 0.00 0.00 0.00 68 1017.2
20260510040003 64 0 0.0 2.0 0.00 0.00 0.00 68 1017.2
20260510035503 64 0 0.0 2.0 0.00 0.00 0.00 69 1017.1
20260510035004 64 0 0.0 3.0 0.00 0.00 0.00 69 1017.0
20260510034503 63 0 0.0 3.0 0.00 0.00 0.00 69 1016.9
20260510034003 63 0 0.0 3.0 0.00 0.00 0.00 69 1016.7
20260510033503 63 0 0.0 3.0 0.00 0.00 0.00 69 1016.7
20260510033003 63 225 1.0 2.0 0.00 0.00 0.00 69 1016.7
20260510032504 63 0 0.0 2.0 0.00 0.00 0.00 69 1016.6
20260510032003 63 0 0.0 2.0 0.00 0.00 0.00 69 1016.6
20260510031503 63 0 0.0 2.0 0.00 0.00 0.00 70 1016.7
20260510031003 63 0 0.0 3.0 0.00 0.00 0.00 70 1016.7
20260510030504 63 225 1.0 4.0 0.00 0.00 0.00 70 1016.7
20260510030004 63 231 1.0 4.0 0.00 0.00 0.00 70 1016.7
20260510025503 63 21 2.0 3.0 0.00 0.00 0.00 70 1016.7
20260510025003 63 0 0.0 2.0 0.00 0.00 0.00 70 1016.6
20260510024504 63 0 0.0 3.0 0.00 0.00 0.00 70 1016.6
20260510024004 63 38 1.0 3.0 0.00 0.00 0.00 70 1016.6
20260510023503 63 0 0.0 2.0 0.00 0.00 0.00 70 1016.7
20260510023003 64 0 0.0 3.0 0.00 0.00 0.00 70 1016.6
20260510022504 64 38 1.0 4.0 0.00 0.00 0.00 71 1016.5
20260510022004 64 35 2.0 4.0 0.00 0.00 0.00 71 1016.5
20260510021503 64 39 2.0 4.0 0.00 0.00 0.00 71 1016.6
20260510021003 64 0 0.0 4.0 0.00 0.00 0.00 72 1016.5
20260510020503 63 49 2.0 4.0 0.00 0.00 0.00 73 1016.5
20260510020004 63 0 0.0 2.0 0.00 0.00 0.00 73 1016.7
20260510015504 63 0 0.0 4.0 0.00 0.00 0.00 73 1016.7
20260510015003 63 0 0.0 4.0 0.00 0.00 0.00 74 1016.6
20260510014503 63 291 1.0 4.0 0.00 0.00 0.00 74 1016.5
20260510014004 63 0 0.0 4.0 0.00 0.00 0.00 74 1016.4
20260510013503 63 46 1.0 5.0 0.00 0.00 0.00 75 1016.4
20260510013003 63 51 1.0 5.0 0.00 0.00 0.00 75 1016.4
20260510012504 62 0 0.0 5.0 0.00 0.00 0.00 75 1016.4
20260510012004 62 36 2.0 5.0 0.00 0.00 0.00 75 1016.5
20260510011503 62 32 3.0 5.0 0.00 0.00 0.00 76 1016.5
20260510011003 62 21 1.0 5.0 0.00 0.00 0.00 77 1016.6
20260510010503 62 0 0.0 5.0 0.00 0.00 0.00 77 1016.5
20260510010004 62 0 0.0 5.0 0.00 0.00 0.00 78 1016.6
20260510005503 62 0 0.0 3.0 0.00 0.00 0.00 78 1016.6
20260510005003 62 225 1.0 3.0 0.00 0.00 0.00 78 1016.7
20260510004503 62 0 0.0 4.0 0.00 0.00 0.00 79 1016.7
20260510004004 62 225 1.0 4.0 0.00 0.00 0.00 79 1016.8
20260510003504 63 225 2.0 3.0 0.00 0.00 0.00 80 1016.7
20260510003004 63 0 0.0 2.0 0.00 0.00 0.00 80 1016.7
20260510002503 63 0 0.0 2.0 0.00 0.00 0.00 80 1016.7
20260510002004 63 0 0.0 2.0 0.00 0.00 0.00 80 1016.7
20260510001504 63 0 0.0 2.0 0.00 0.00 0.00 81 1016.7
20260510001003 63 0 0.0 2.0 0.00 0.00 0.00 81 1016.8
20260510000503 63 156 1.0 2.0 0.00 0.00 0.00 81 1016.9
20260510000003 63 0 0.0 2.0 0.00 0.00 0.00 81 1016.8
20260509235504 63 225 1.0 2.0 0.00 0.00 0.00 81 1016.8
20260509235003 63 225 1.0 2.0 0.00 0.00 0.00 81 1016.8
20260509234503 63 0 0.0 2.0 0.00 0.00 0.00 81 1016.7
20260509234003 63 0 0.0 3.0 0.00 0.00 0.00 81 1016.8
20260509233504 64 0 0.0 3.0 0.00 0.00 0.00 81 1016.8
20260509233004 64 0 0.0 4.0 0.00 0.00 0.00 80 1016.8
20260509232503 64 225 2.0 4.0 0.00 0.00 0.00 80 1016.9
20260509232003 64 0 0.0 4.0 0.00 0.00 0.00 80 1017.0
20260509231504 64 0 0.0 2.0 0.00 0.00 0.00 80 1017.1
20260509231003 64 0 0.0 2.0 0.00 0.00 0.00 80 1017.1
20260509230503 65 0 0.0 2.0 0.00 0.00 0.00 80 1017.1
20260509230003 65 0 0.0 2.0 0.00 0.00 0.00 80 1017.1
20260509225504 65 31 2.0 2.0 0.00 0.00 0.00 80 1017.0
20260509225003 65 0 0.0 2.0 0.00 0.00 0.00 80 1017.0
20260509224503 65 0 0.0 2.0 0.00 0.00 0.00 80 1017.0
20260509224003 65 0 0.0 1.0 0.00 0.00 0.00 79 1017.0
20260509223503 65 0 0.0 1.0 0.00 0.00 0.00 79 1016.9
20260509223004 65 0 0.0 1.0 0.00 0.00 0.00 79 1017.1
20260509222503 65 0 0.0 2.0 0.00 0.00 0.00 79 1017.0
20260509222003 65 0 0.0 2.0 0.00 0.00 0.00 79 1017.0
20260509221503 65 0 0.0 2.0 0.00 0.00 0.00 79 1017.2
20260509221004 65 0 0.0 2.0 0.00 0.00 0.00 80 1017.2
20260509220503 65 0 0.0 2.0 0.00 0.00 0.00 80 1017.1
20260509220003 65 0 0.0 3.0 0.00 0.00 0.00 80 1017.0
20260509215504 65 32 1.0 3.0 0.00 0.00 0.00 80 1017.1
20260509215004 65 0 0.0 2.0 0.00 0.00 0.00 80 1017.2
20260509214504 65 0 0.0 2.0 0.00 0.00 0.00 80 1017.2
20260509214003 66 0 0.0 2.0 0.00 0.00 0.00 80 1017.3
20260509213503 66 270 1.0 2.0 0.00 0.00 0.00 80 1017.3
20260509213004 66 0 0.0 1.0 0.00 0.00 0.00 80 1017.3
20260509212504 66 0 0.0 2.0 0.00 0.00 0.00 80 1017.3
20260509212003 66 0 0.0 2.0 0.00 0.00 0.00 80 1017.4
20260509211503 66 254 1.0 4.0 0.00 0.00 0.00 80 1017.4
20260509211003 66 0 0.0 4.0 0.00 0.00 0.00 80 1017.3
20260509210503 66 247 2.0 4.0 0.00 0.00 0.00 79 1017.3
20260509210004 66 244 2.0 4.0 0.00 0.00 0.00 79 1017.2
20260509205503 66 261 1.0 4.0 0.00 0.00 0.00 78 1017.2
20260509205003 66 260 1.0 3.0 0.00 0.00 0.00 77 1017.1
20260509204504 66 0 0.0 2.0 0.00 0.00 0.00 77 1017.0
20260509204004 66 0 0.0 2.0 0.00 0.00 0.00 76 1016.9
20260509203503 66 0 0.0 2.0 0.00 0.00 0.00 75 1017.0
20260509203003 66 0 0.0 0.0 0.00 0.00 0.00 75 1017.0
20260509202504 66 0 0.0 0.0 0.00 0.00 0.00 75 1017.0
20260509202003 66 0 0.0 0.0 0.00 0.00 0.00 74 1016.8
20260509201503 66 0 0.0 2.0 0.00 0.00 0.00 74 1016.8
20260509201003 66 0 0.0 2.0 0.00 0.00 0.00 74 1016.8
20260509200504 66 0 0.0 2.0 0.00 0.00 0.00 74 1016.9
20260509200004 66 225 1.0 2.0 0.00 0.00 0.00 74 1016.7
20260509195503 67 0 0.0 2.0 0.00 0.00 0.00 74 1016.7
20260509195003 67 0 0.0 2.0 0.00 0.00 0.00 74 1016.7
20260509194504 67 0 0.0 2.0 0.00 0.00 0.00 73 1016.7
20260509194003 67 0 0.0 1.0 0.00 0.00 0.00 73 1016.7
20260509193503 67 0 0.0 2.0 0.00 0.00 0.00 73 1016.7
20260509193003 67 0 0.0 2.0 0.00 0.00 0.00 73 1016.8
20260509192504 67 0 0.0 2.0 0.00 0.00 0.00 73 1016.8
20260509192003 67 0 0.0 1.0 0.00 0.00 0.00 73 1016.7
20260509191503 67 0 0.0 1.0 0.00 0.00 0.00 73 1016.8
20260509191004 67 0 0.0 1.0 0.00 0.00 0.00 72 1016.7
20260509190504 67 0 0.0 1.0 0.00 0.00 0.00 72 1016.7
20260509190004 68 0 0.0 2.0 0.00 0.00 0.00 71 1016.6
20260509185503 68 0 0.0 2.0 0.00 0.00 0.00 71 1016.7
20260509185004 68 0 0.0 2.0 0.00 0.00 0.00 70 1016.8
20260509184504 68 0 0.0 3.0 0.00 0.00 0.00 70 1016.7
20260509184003 68 0 0.0 3.0 0.00 0.00 0.00 69 1016.6
20260509183503 68 0 0.0 3.0 0.00 0.00 0.00 69 1016.6
20260509183004 68 225 1.0 2.0 0.00 0.00 0.00 69 1016.6
20260509182503 69 0 0.0 2.0 0.00 0.00 0.00 69 1016.5